Temperature
17 17 16 16 15 14 14 14 14 14 13 11 11 11 11 11 12 12 11 12 12 12 12 12 11 11 12 12 12 12 12 12 12 12 12 12 13 12 12 12 12 12 12
17 16 16 16 15 14 14 14 14 13 12 11 11 11 11 11 11 11 11 11 11 11 11 11 11 11 11 11 11 12 12 12 12 12 12 12 13 13 12 12 12 12 12
17 16 16 15 15 14 14 14 13 13 12 11 11 11 11 11 11 11 11 11 11 11 11 12 11 11 10 11 11 12 13 13 12 12 12 11 12 12 12 12 12 12 12
16 16 16 15 15 14 14 13 13 13 12 12 11 11 11 11 11 12 11 12 11 11 12 12 11 10 10 10 11 12 12 12 12 12 12 11 12 12 11 11 12 12 12
16 15 15 15 14 14 13 13 13 12 12 11 11 11 11 11 11 11 12 12 12 12 13 13 12 11 10 10 11 12 12 12 11 11 11 11 12 12 13 13 13 12 12
16 15 15 15 14 14 13 13 13 12 11 11 11 11 11 11 11 11 12 12 12 12 12 13 12 12 11 12 11 12 12 12 11 11 11 11 12 12 12 13 13 12 12
16 16 15 15 14 14 13 13 13 12 11 11 11 11 11 11 11 11 11 11 11 12 12 12 13 13 13 13 12 12 12 12 11 11 11 11 12 13 13 13 13 12 12
16 16 15 15 14 13 13 13 13 12 12 11 11 12 11 11 11 11 11 11 11 11 11 12 13 13 13 13 13 13 12 12 11 11 11 12 12 13 13 13 13 13 12
16 16 15 15 14 14 14 14 13 12 12 12 12 12 12 12 11 11 11 11 11 11 12 12 13 13 13 13 13 13 13 12 12 11 11 12 13 13 12 12 13 12 12
16 15 15 15 15 15 15 15 14 13 12 12 13 13 13 13 12 11 11 12 12 12 12 12 13 13 13 14 14 14 13 13 12 12 12 12 12 13 12 12 12 12 12
16 16 15 15 14 14 15 16 15 15 14 14 14 14 14 13 12 12 13 13 12 12 12 13 13 13 13 13 14 14 14 13 13 12 12 12 13 13 13 13 12 12 12
17 16 16 15 15 14 14 15 16 16 16 16 16 15 14 13 12 11 12 13 13 13 13 13 13 13 13 13 13 13 14 13 13 12 12 13 13 13 13 13 13 13 12
19 18 17 16 15 15 15 15 17 17 17 16 16 15 14 13 12 12 13 13 14 14 14 14 13 13 13 13 13 13 13 13 12 12 12 13 13 13 13 12 12 12 12
20 19 18 17 16 16 16 16 17 17 16 17 16 14 14 13 13 13 14 14 14 14 14 13 13 13 13 13 13 13 13 13 13 13 13 13 13 13 13 13 13 12 12
20 20 19 18 17 17 17 17 18 17 17 17 16 16 15 14 14 14 14 14 13 13 13 12 13 13 13 13 14 14 13 13 13 13 13 14 14 13 13 13 13 12 12
20 20 19 19 18 18 18 18 18 18 17 17 17 17 16 15 15 14 14 14 14 14 14 13 13 13 12 12 13 13 13 13 13 13 14 14 14 14 14 13 13 13 13
20 20 19 19 19 19 18 18 18 18 17 17 17 17 17 16 16 15 15 15 15 14 14 14 14 13 12 12 12 12 12 13 13 14 14 14 14 14 14 14 13 13 13
21 20 19 19 18 19 19 19 18 18 17 18 18 18 18 17 17 16 16 16 15 15 14 14 14 13 13 12 12 12 12 12 12 13 13 13 13 14 14 14 14 14 13
21 21 20 19 19 19 19 19 18 18 18 18 19 19 19 19 18 18 17 17 16 15 14 14 14 13 13 12 12 12 11 11 12 12 12 12 12 13 13 14 14 14 14
22 21 21 20 19 18 18 18 18 18 19 19 19 19 19 19 19 18 18 18 16 15 15 14 13 13 12 11 11 11 11 11 11 11 11 11 11 11 12 12 13 13 13
21 21 21 20 20 19 18 17 17 18 19 18 19 19 19 19 19 18 18 17 16 15 15 14 13 12 12 11 10 10 10 10 10 10 10 10 11 11 11 12 12 12 12
20 20 20 20 19 19 18 18 17 17 18 18 18 18 18 18 17 16 16 16 15 14 13 13 12 11 11 11 10 10 10 10 10 10 10 11 12 11 11 11 11 11 11
19 19 19 19 19 18 18 17 17 16 16 16 17 17 17 16 15 15 14 14 13 12 12 12 12 11 11 11 10 10 10 10 10 11 11 11 11 11 11 11 11 11 11
18 19 19 18 18 17 17 17 16 16 15 16 15 15 15 15 15 15 14 13 12 12 11 11 11 11 11 11 11 11 10 11 10 11 11 11 11 11 11 11 11 11 11
18 18 18 17 17 17 17 16 16 15 15 15 14 14 15 15 15 15 15 14 13 12 12 11 11 11 11 11 11 11 10 10 10 10 10 10 10 10 10 10 10 10 10
18 17 17 17 17 16 16 16 15 15 15 14 14 14 14 14 14 14 14 14 13 12 12 12 12 12 11 11 11 11 11 10 10 10 9 9 9 10 10 10 10 10 10
Wind_Speed
9 14 16 13 16 15 13 11 9 8 7 6 5 6 6 6 5 6 6 7 7 8 9 8 6 7 8 10 12 12 11 10 9 9 10 11 10 10 11 14 15 11 10
12 15 14 15 18 15 13 11 9 8 7 6 5 6 6 6 5 6 7 7 8 8 9 8 6 7 9 10 11 11 10 8 5 2 4 9 10 10 11 12 12 11 14
13 15 14 18 17 16 14 12 11 8 7 5 5 5 6 5 5 6 6 6 7 7 8 8 6 7 8 9 10 10 8 5 4 7 7 5 11 11 10 10 11 12 14
13 16 16 18 16 15 14 13 11 8 6 4 4 4 5 5 5 6 6 6 6 6 7 7 6 6 7 7 8 8 5 2 6 10 6 11 12 10 10 11 11 11 11
11 15 18 20 17 15 15 13 11 9 6 5 5 5 5 4 5 5 5 5 5 5 5 5 5 4 5 5 5 6 2 3 7 11 5 14 11 10 10 10 10 9 9
10 14 20 20 17 15 15 13 12 9 7 6 5 5 4 5 5 4 3 3 3 3 3 3 3 2 3 2 2 3 1 6 10 8 6 13 10 9 9 9 9 9 10
9 16 17 19 17 15 15 13 11 9 8 7 6 4 4 4 3 3 2 2 3 3 2 1 2 1 1 1 2 3 3 9 11 2 9 13 9 7 7 7 7 7 8
9 15 16 17 15 14 14 12 11 9 9 9 7 4 3 2 3 2 1 3 4 3 3 3 4 4 3 2 2 2 3 9 11 3 11 12 8 5 5 5 5 5 6
8 11 14 14 13 12 12 13 12 9 8 9 8 5 4 3 4 3 3 5 5 4 3 4 5 6 6 5 4 3 3 9 11 7 7 12 7 4 3 3 3 4 3
7 8 11 15 16 14 12 13 13 11 9 10 9 7 7 7 7 6 7 7 7 6 5 6 6 7 8 7 6 6 6 9 13 8 5 11 8 5 4 4 3 3 2
7 7 8 10 12 15 17 16 15 11 11 13 11 12 11 10 13 13 11 11 9 8 7 7 7 7 6 8 9 9 9 11 15 9 8 12 9 7 7 6 5 4 4
9 9 7 7 8 8 11 15 14 13 14 15 14 16 13 14 13 12 15 13 11 10 9 9 9 8 8 10 13 11 10 14 14 7 9 13 10 9 10 9 8 7 7
9 9 8 8 7 6 4 9 10 12 14 15 16 17 16 15 9 12 11 11 11 10 10 11 10 10 12 11 9 11 13 14 10 8 11 14 12 11 12 12 12 11 10
10 11 10 9 8 7 6 4 5 5 6 8 13 16 13 6 4 6 6 9 11 10 9 9 8 12 12 10 7 8 11 9 7 8 10 16 15 14 14 14 14 14 14
12 12 11 10 9 8 7 6 3 4 5 8 10 13 11 4 5 3 3 5 8 8 7 5 6 6 6 8 9 9 7 8 9 10 10 16 17 17 18 19 18 18 17
11 11 11 12 10 9 8 7 6 4 6 8 8 11 13 8 4 6 6 4 5 8 8 6 6 7 7 5 8 7 8 9 10 11 13 16 21 21 21 21 22 22 21
9 10 12 13 14 11 10 10 7 5 6 4 6 13 14 13 8 5 6 6 6 10 9 7 7 6 7 7 8 8 6 8 9 12 15 15 16 22 24 23 24 24 25
10 10 12 12 14 14 11 9 7 5 5 5 8 11 14 15 13 6 7 7 7 9 6 7 7 7 7 6 6 6 7 7 8 9 12 14 16 16 21 25 25 26 27
12 11 11 11 12 13 12 9 8 7 9 5 8 9 12 15 16 9 10 9 8 7 8 8 8 7 7 8 8 8 8 8 9 9 10 10 13 16 18 21 26 28 28
6 10 11 12 12 12 10 9 7 8 8 7 8 9 12 13 15 10 11 10 9 8 9 8 9 8 7 7 7 8 8 9 9 10 11 9 10 14 17 18 19 22 27
10 7 5 9 10 9 7 7 8 8 7 7 8 10 11 12 12 12 11 10 10 10 11 10 9 9 9 6 6 7 7 9 11 9 8 9 11 11 14 17 18 18 17
12 11 10 6 5 7 8 7 6 6 7 8 8 11 10 10 9 11 13 10 10 10 11 12 11 9 8 8 7 6 5 6 10 12 13 14 14 11 12 12 13 14 15
11 11 9 10 7 3 5 5 4 4 5 6 7 7 8 9 8 10 11 10 10 11 11 12 11 12 10 9 10 7 6 8 5 7 13 13 11 9 9 8 11 12 15
10 9 9 9 9 7 3 2 6 6 6 8 6 6 8 11 13 13 12 12 12 12 13 13 14 14 13 13 9 12 11 6 6 5 5 7 10 10 10 9 10 11 12
9 9 9 9 10 9 7 6 4 5 6 6 6 8 8 9 12 14 13 12 13 14 15 15 15 16 15 15 13 9 12 13 13 11 8 6 6 9 11 11 11 11 10
9 9 10 11 11 11 10 8 7 7 7 8 9 8 7 6 6 9 11 12 13 13 15 17 17 15 16 16 15 13 10 8 11 13 16 12 9 7 9 11 12 11 10
Wind_Direction
125 136 158 159 150 143 138 134 133 134 134 134 129 122 105 94 89 78 80 76 70 71 73 73 91 97 89 92 93 87 82 78 77 83 82 78 68 63 56 42 46 46 51
127 135 155 154 151 147 142 140 138 139 149 147 126 114 111 110 99 87 78 74 68 70 74 74 80 94 89 93 99 92 82 72 57 46 83 92 85 71 63 54 49 50 55
130 136 149 153 155 150 146 144 143 150 158 145 137 128 129 114 97 82 77 74 73 72 73 73 66 80 89 92 92 89 79 60 339 315 299 161 95 74 67 60 56 55 56
140 146 152 155 155 152 151 149 149 159 162 151 157 142 140 126 101 85 77 72 76 75 72 70 56 77 86 93 95 89 79 26 308 308 329 110 95 82 70 66 59 53 54
143 159 152 155 155 155 155 156 159 166 170 166 156 136 125 123 108 86 81 78 72 66 67 69 53 66 86 82 89 93 71 301 305 299 67 92 89 86 77 72 63 58 55
149 142 146 155 156 158 160 164 167 171 176 166 135 111 118 127 115 99 91 84 88 80 69 69 69 61 82 78 110 109 324 302 314 281 125 107 100 97 89 83 76 67 60
147 126 150 153 157 163 166 170 174 180 184 174 149 124 111 111 112 112 125 144 144 136 125 132 174 202 136 134 151 124 301 303 302 283 97 104 108 101 92 89 88 83 69
137 126 137 149 158 166 172 176 182 192 188 178 172 170 157 127 122 131 162 175 172 162 170 188 202 208 206 194 185 153 296 306 318 351 107 113 118 118 115 109 104 98 93
135 133 142 152 162 172 181 181 185 196 197 180 177 188 173 153 154 148 172 166 161 166 187 205 211 206 209 208 203 198 262 293 299 292 133 128 139 157 149 143 132 124 128
152 155 158 166 172 177 183 180 181 196 197 172 177 183 160 173 184 177 170 165 169 184 200 211 214 208 207 208 211 214 229 272 280 264 147 138 155 183 192 192 188 183 191
174 177 178 170 173 176 180 181 179 189 184 173 180 176 175 198 205 201 191 173 184 196 206 211 211 209 209 220 221 219 220 247 261 241 155 150 166 201 211 215 219 225 235
189 188 190 180 165 175 181 168 181 183 180 186 193 183 197 224 225 187 165 177 190 199 208 214 215 219 227 238 229 220 221 242 258 236 164 163 181 215 226 227 232 238 244
193 194 193 190 172 169 165 166 185 189 182 197 212 190 199 221 190 150 172 184 199 207 215 217 213 220 223 232 206 203 222 236 235 225 182 179 191 216 236 240 240 245 249
194 198 201 187 180 182 168 185 187 190 179 192 209 203 195 204 195 184 191 188 193 199 213 203 207 219 215 224 224 223 228 229 235 233 206 193 201 215 232 245 249 248 250
193 195 193 192 188 189 182 183 188 194 186 197 200 205 202 178 193 208 204 204 195 200 199 200 212 229 207 206 215 223 232 229 231 225 214 207 211 221 230 239 247 251 251
196 190 186 186 195 199 192 187 196 202 197 200 195 199 208 202 189 202 206 206 199 207 211 201 206 229 227 214 219 214 215 224 234 237 230 223 222 223 230 237 242 247 250
202 195 189 188 188 201 206 194 192 198 196 197 207 203 207 207 201 191 206 210 202 208 212 211 221 227 228 224 222 223 221 217 220 224 227 228 226 224 228 236 241 244 248
206 204 197 191 187 194 203 204 195 190 192 195 205 208 210 208 204 198 207 213 205 206 209 213 215 223 228 229 232 235 232 232 233 230 227 225 225 226 228 233 238 243 247
202 202 199 191 190 191 194 200 202 201 206 198 201 209 214 212 208 202 211 212 206 209 213 218 214 213 224 228 228 230 231 230 232 230 230 227 224 223 224 228 231 235 242
228 207 199 195 193 190 186 189 201 216 217 207 207 213 214 216 213 208 215 214 206 212 218 217 216 215 220 221 231 236 234 234 234 233 232 229 229 228 225 227 230 234 236
353 332 246 206 197 188 181 184 197 217 225 226 224 222 218 218 214 211 216 214 213 219 222 217 212 216 223 217 235 256 259 246 242 241 238 236 235 229 227 231 233 231 234
1 352 345 311 233 196 191 193 197 207 221 225 228 229 224 222 220 219 217 217 216 222 225 221 215 218 221 207 214 232 260 262 243 239 240 241 238 231 233 232 229 223 223
10 358 354 348 334 295 183 179 202 226 247 247 244 245 237 231 232 233 229 222 222 224 232 228 221 219 223 217 209 205 220 238 256 239 231 232 226 222 228 231 231 226 224
9 359 359 1 0 355 348 211 215 224 241 250 251 242 230 221 224 225 226 224 226 228 232 232 227 227 223 229 223 221 225 209 224 269 254 227 215 221 227 231 233 232 227
15 8 8 17 18 7 0 347 299 258 254 260 259 254 250 237 226 222 223 226 232 235 236 236 233 229 227 229 227 222 232 238 239 246 260 243 227 219 218 221 223 224 223
26 22 24 29 25 14 8 357 344 321 307 303 297 292 288 280 255 231 223 226 233 239 242 244 243 238 234 231 230 226 218 222 228 235 246 250 245 233 220 224 228 225 222
Height
1505 1505 1507 1508 1509 1510 1511 1512 1513 1513 1513 1514 1515 1515 1515 1515 1515 1515 1516 1515 1515 1515 1515 1515 1516 1517 1518 1518 1518 1518 1519 1520 1520 1520 1520 1519 1518 1518 1518 1519 1519 1518 1517
1505 1505 1506 1507 1508 1510 1511 1512 1513 1514 1514 1514 1515 1515 1515 1516 1516 1515 1515 1515 1515 1515 1515 1515 1516 1517 1518 1519 1519 1519 1519 1520 1521 1521 1520 1520 1520 1519 1519 1518 1518 1518 1518
1504 1504 1506 1507 1508 1510 1511 1512 1513 1513 1514 1514 1515 1515 1516 1516 1516 1515 1515 1515 1515 1515 1515 1515 1516 1517 1517 1518 1519 1519 1519 1520 1522 1522 1522 1521 1521 1520 1519 1519 1518 1518 1518
1503 1504 1505 1507 1508 1510 1511 1511 1512 1512 1513 1514 1515 1516 1516 1517 1516 1516 1515 1515 1515 1515 1515 1515 1515 1517 1517 1518 1519 1519 1520 1521 1522 1522 1523 1522 1521 1520 1519 1518 1518 1518 1517
1504 1504 1504 1506 1508 1509 1510 1511 1511 1512 1513 1514 1516 1516 1516 1517 1516 1516 1516 1516 1516 1516 1515 1515 1516 1517 1517 1518 1519 1519 1520 1521 1522 1522 1523 1522 1521 1520 1518 1518 1518 1518 1518
1505 1504 1505 1507 1508 1509 1510 1511 1511 1512 1513 1515 1516 1516 1516 1516 1516 1517 1516 1516 1516 1516 1516 1516 1516 1517 1517 1518 1519 1520 1521 1521 1522 1523 1524 1522 1521 1520 1519 1518 1518 1518 1517
1506 1504 1506 1507 1507 1508 1509 1510 1511 1512 1513 1514 1515 1515 1516 1516 1517 1517 1516 1516 1516 1516 1516 1516 1516 1517 1517 1518 1519 1520 1521 1521 1521 1523 1524 1522 1521 1520 1519 1518 1517 1517 1517
1506 1503 1505 1506 1507 1508 1508 1509 1510 1511 1512 1513 1514 1515 1515 1515 1516 1516 1515 1515 1516 1516 1516 1516 1516 1516 1516 1517 1519 1520 1520 1521 1520 1522 1522 1521 1521 1520 1518 1517 1517 1516 1516
1506 1504 1504 1505 1506 1507 1507 1508 1509 1510 1511 1512 1513 1514 1514 1514 1514 1515 1515 1515 1515 1515 1514 1514 1514 1514 1515 1516 1517 1518 1519 1520 1520 1520 1520 1519 1520 1520 1519 1518 1517 1516 1516
1505 1505 1503 1504 1505 1506 1507 1507 1508 1509 1510 1511 1512 1512 1513 1513 1513 1513 1513 1513 1513 1513 1513 1513 1513 1513 1514 1515 1516 1517 1518 1518 1518 1519 1519 1518 1519 1519 1518 1517 1517 1516 1515
1504 1504 1505 1505 1505 1505 1506 1506 1507 1508 1509 1510 1510 1511 1511 1512 1512 1511 1511 1511 1511 1511 1511 1511 1511 1512 1513 1514 1514 1515 1516 1516 1516 1517 1517 1516 1517 1517 1517 1516 1516 1515 1514
1501 1502 1503 1506 1506 1506 1507 1506 1506 1507 1507 1508 1509 1509 1510 1510 1510 1510 1509 1510 1509 1509 1509 1509 1510 1511 1512 1513 1514 1514 1515 1515 1515 1516 1515 1515 1515 1516 1515 1514 1514 1513 1512
1500 1500 1502 1503 1504 1505 1506 1505 1505 1505 1506 1507 1508 1508 1509 1509 1510 1509 1509 1509 1509 1508 1508 1508 1509 1509 1510 1511 1512 1513 1514 1514 1513 1514 1513 1513 1513 1513 1513 1513 1512 1511 1510
1498 1498 1499 1500 1502 1503 1504 1505 1505 1505 1505 1506 1506 1507 1507 1507 1508 1508 1507 1507 1506 1506 1506 1507 1507 1507 1508 1508 1509 1510 1510 1510 1510 1510 1510 1509 1509 1509 1510 1509 1509 1508 1508
1495 1495 1496 1498 1499 1501 1502 1503 1503 1504 1504 1504 1505 1505 1506 1506 1506 1506 1506 1506 1505 1505 1504 1504 1504 1504 1504 1504 1504 1505 1505 1505 1506 1506 1505 1505 1506 1505 1505 1505 1505 1505 1504
1493 1493 1494 1495 1497 1499 1499 1500 1501 1502 1502 1502 1503 1503 1504 1504 1504 1504 1504 1503 1503 1502 1502 1501 1501 1501 1501 1500 1500 1500 1500 1501 1501 1501 1501 1501 1501 1501 1501 1501 1500 1500 1499
1490 1491 1492 1492 1493 1495 1496 1497 1498 1499 1500 1500 1501 1501 1501 1501 1501 1500 1500 1500 1499 1499 1498 1497 1496 1496 1496 1495 1495 1495 1495 1495 1495 1495 1495 1495 1495 1495 1495 1495 1495 1494 1493
1486 1488 1489 1489 1490 1491 1493 1494 1494 1495 1496 1496 1497 1497 1497 1497 1497 1496 1496 1495 1495 1494 1493 1492 1491 1490 1490 1490 1490 1489 1490 1490 1489 1489 1489 1488 1488 1488 1487 1488 1487 1487 1486
1482 1484 1486 1487 1487 1487 1489 1490 1491 1491 1491 1492 1492 1492 1492 1492 1492 1491 1490 1489 1489 1488 1487 1487 1485 1485 1485 1484 1484 1484 1483 1483 1482 1482 1481 1481 1480 1480 1479 1479 1479 1478 1478
1479 1479 1480 1481 1482 1483 1484 1485 1486 1486 1486 1486 1486 1486 1486 1486 1485 1484 1483 1482 1482 1482 1481 1480 1480 1480 1480 1480 1480 1478 1477 1476 1475 1474 1473 1473 1472 1472 1471 1470 1470 1469 1468
1474 1475 1476 1477 1477 1478 1478 1479 1479 1479 1480 1480 1480 1480 1480 1479 1478 1477 1476 1475 1475 1474 1474 1474 1474 1474 1473 1474 1475 1473 1471 1469 1466 1465 1464 1463 1462 1462 1462 1461 1460 1459 1458
1469 1469 1470 1472 1474 1474 1474 1475 1475 1475 1475 1474 1474 1474 1473 1473 1472 1471 1470 1469 1468 1468 1468 1468 1467 1467 1467 1468 1468 1468 1465 1461 1455 1456 1455 1453 1452 1453 1452 1452 1451 1450 1449
1468 1466 1466 1467 1469 1471 1472 1472 1472 1472 1471 1470 1469 1469 1469 1469 1468 1467 1466 1464 1463 1462 1461 1461 1462 1461 1460 1460 1460 1461 1458 1450 1447 1444 1443 1442 1442 1443 1444 1444 1444 1443 1442
1469 1467 1466 1465 1466 1468 1469 1470 1469 1469 1468 1467 1467 1467 1465 1464 1462 1460 1459 1458 1457 1456 1455 1455 1455 1454 1454 1452 1451 1450 1448 1445 1444 1438 1437 1435 1435 1435 1435 1436 1436 1436 1436
1471 1469 1467 1466 1465 1466 1466 1467 1467 1466 1465 1464 1463 1462 1460 1458 1456 1453 1451 1450 1448 1447 1445 1445 1445 1445 1444 1443 1441 1440 1439 1438 1436 1434 1430 1427 1426 1425 1426 1427 1426 1427 1428
1473 1471 1470 1468 1467 1466 1465 1465 1464 1463 1462 1460 1458 1457 1455 1454 1452 1450 1447 1444 1442 1440 1439 1438 1438 1437 1436 1434 1433 1431 1430 1428 1425 1425 1423 1420 1418 1417 1418 1418 1416 1416 1417